Poplar Bluff, MO

8:00 AM CDT on May 26, 2018 (GMT -0500)
Poplar Bluff Municipal

Weather History for KPOF - March, 2013

Change the Weather History Date:

Friday, March 22, 2013

  Actual Average Record
Temperature  
Mean Temperature 38 °F -  
Max Temperature 43 °F 59 °F 85 °F (1939)
Min Temperature 33 °F 37 °F 20 °F (1974)
Degree Days  
Heating Degree Days 27    
Moisture  
Dew Point 30 °F    
Average Humidity 79    
Maximum Humidity 92    
Minimum Humidity 57    
Precipitation  
Precipitation 0.05 in - - ()
Sea Level Pressure  
Sea Level Pressure 29.99 in    
Wind  
Wind Speed 6 mph (NE)    
Max Wind Speed 12 mph    
Max Gust Speed -    
Visibility 7 miles    
Events Rain , Snow    
Averages and records for this station are not official NWS values.
T = Trace of Precipitation, MM = Missing Value Source: NWS Daily Summary

Daily Weather History Graph

Daily Weather History Graph

Search for Another Location

Airport or City:

Astronomy

Mar. 22, 2013 Rise Set
Actual Time 7:01 AM CDT 7:15 PM CDT
Civil Twilight 6:35 AM CDT 7:40 PM CDT
Nautical Twilight 6:05 AM CDT 8:11 PM CDT
Astronomical Twilight 5:34 AM CDT 8:42 PM CDT
Moon 2:48 PM CDT (3/22) 3:55 AM CDT (3/22)
Length of Visible Light 13h 05m
Length of Day
12h 13m
Waxing Gibbous, 77% of the Moon is Illuminated
Mar 22
Waxing Gibbous
Mar 27
Full
Apr 2
Last Quarter
Apr 10
New
Apr 18
First Quarter

Hourly Weather History & Observations

Time (CDT) Temp. Windchill Dew Point Humidity Pressure Visibility Wind Dir Wind Speed Gust Speed Precip Events Conditions
12:05 AM 33.8 °F - 30.2 °F 87% 30.01 in 2.0 mi Calm Calm - 0.00 in Snow Light Snow
12:46 AM 33.8 °F 30.8 °F 30.2 °F 87% 30.00 in 1.8 mi East 3.5 mph - 0.01 in Snow Light Snow
12:53 AM 33.1 °F 30.0 °F 30.9 °F 92% 30.02 in 1.8 mi East 3.5 mph - 0.01 in Snow Light Snow
1:21 AM 33.8 °F 29.6 °F 30.2 °F 87% 30.00 in 1.5 mi ENE 4.6 mph - 0.01 in Snow Light Snow
1:33 AM 33.8 °F 29.6 °F 30.2 °F 87% 30.00 in 2.5 mi ENE 4.6 mph - 0.01 in Snow Light Snow
1:53 AM 33.1 °F 27.7 °F 30.9 °F 92% 30.01 in 2.5 mi NE 5.8 mph - 0.02 in Snow Light Snow
2:01 AM 33.8 °F 29.6 °F 30.2 °F 87% 29.99 in 3.0 mi NE 4.6 mph - 0.00 in Snow Light Snow
2:27 AM 33.8 °F 28.6 °F 30.2 °F 87% 29.99 in 4.0 mi ENE 5.8 mph - 0.00 in Snow Light Snow
2:53 AM 34.0 °F 28.0 °F 30.9 °F 89% 30.00 in 4.0 mi ENE 6.9 mph - 0.00 in   Overcast
3:13 AM 33.8 °F 28.6 °F 30.2 °F 87% 29.98 in 5.0 mi ENE 5.8 mph - N/A   Overcast
3:28 AM 33.8 °F 27.0 °F 30.2 °F 87% 29.97 in 5.0 mi ENE 8.1 mph - 0.00 in   Overcast
3:45 AM 33.8 °F 26.4 °F 30.2 °F 87% 29.96 in 6.0 mi ENE 9.2 mph - 0.00 in   Overcast
3:53 AM 34.0 °F 27.2 °F 30.9 °F 89% 29.97 in 6.0 mi ENE 8.1 mph - 0.00 in   Overcast
4:40 AM 33.8 °F 27.7 °F 30.2 °F 87% 29.96 in 6.0 mi ENE 6.9 mph - 0.00 in   Overcast
4:53 AM 34.0 °F 28.8 °F 30.9 °F 89% 29.98 in 6.0 mi East 5.8 mph - 0.00 in Rain Light Rain
5:21 AM 33.8 °F 27.7 °F 30.2 °F 87% 29.98 in 6.0 mi ENE 6.9 mph - 0.00 in Rain Light Rain
5:53 AM 34.0 °F 28.8 °F 30.9 °F 89% 30.00 in 6.0 mi ENE 5.8 mph - 0.01 in   Overcast
6:05 AM 33.8 °F 28.6 °F 30.2 °F 87% 29.99 in 4.0 mi ENE 5.8 mph - 0.00 in Snow Light Snow
6:14 AM 33.8 °F 29.6 °F 30.2 °F 87% 29.99 in 4.0 mi ENE 4.6 mph - 0.00 in Rain Light Rain
6:53 AM 34.0 °F 27.2 °F 30.9 °F 89% 30.01 in 5.0 mi ENE 8.1 mph - 0.01 in   Overcast
7:19 AM 33.8 °F 27.7 °F 30.2 °F 87% 29.99 in 6.0 mi ENE 6.9 mph - 0.00 in   Overcast
7:53 AM 35.1 °F 28.6 °F 30.9 °F 85% 30.02 in 6.0 mi NE 8.1 mph - 0.00 in   Overcast
8:08 AM 35.6 °F 29.9 °F 30.2 °F 81% 30.00 in 6.0 mi NE 6.9 mph - N/A   Overcast
8:53 AM 35.1 °F 30.1 °F 30.0 °F 82% 30.04 in 9.0 mi NE 5.8 mph - N/A   Overcast
9:35 AM 35.6 °F 28.6 °F 28.4 °F 75% 30.01 in 10.0 mi ENE 9.2 mph - N/A   Overcast
9:43 AM 35.6 °F 29.9 °F 28.4 °F 75% 30.01 in 10.0 mi ENE 6.9 mph - N/A   Overcast
9:53 AM 36.0 °F 29.6 °F 28.9 °F 76% 30.03 in 10.0 mi ENE 8.1 mph - N/A   Overcast
10:28 AM 35.6 °F 29.2 °F 30.2 °F 81% 30.01 in 10.0 mi NE 8.1 mph - N/A   Overcast
10:37 AM 35.6 °F 29.2 °F 30.2 °F 81% 30.01 in 10.0 mi ENE 8.1 mph - N/A   Overcast
10:53 AM 36.0 °F 30.3 °F 30.0 °F 79% 30.03 in 9.0 mi ENE 6.9 mph - N/A   Unknown
11:41 AM 37.4 °F 32.1 °F 30.2 °F 75% 30.01 in 9.0 mi ENE 6.9 mph - N/A   Overcast
11:53 AM 37.0 °F 31.0 °F 30.9 °F 79% 30.03 in 10.0 mi NE 8.1 mph - N/A   Overcast
12:53 PM 39.0 °F 33.4 °F 32.0 °F 76% 30.01 in 10.0 mi NE 8.1 mph - N/A   Overcast
1:08 PM 39.2 °F 33.0 °F 32.0 °F 75% 30.00 in 10.0 mi NE 9.2 mph - N/A   Overcast
1:53 PM 39.9 °F 33.9 °F 30.9 °F 70% 30.00 in 10.0 mi NE 9.2 mph - N/A   Overcast
2:53 PM 42.1 °F 35.7 °F 32.0 °F 67% 29.96 in 10.0 mi NE 11.5 mph - N/A   Overcast
3:53 PM 43.0 °F 36.8 °F 32.0 °F 65% 29.95 in 10.0 mi NE 11.5 mph - N/A   Overcast
4:53 PM 43.0 °F 38.2 °F 30.9 °F 62% 29.96 in 10.0 mi NE 8.1 mph - N/A   Overcast
5:53 PM 43.0 °F 38.2 °F 30.9 °F 62% 29.97 in 10.0 mi NE 8.1 mph - N/A   Overcast
6:21 PM 42.8 °F 38.0 °F 30.2 °F 61% 29.96 in 10.0 mi ENE 8.1 mph - N/A   Overcast
6:53 PM 43.0 °F 37.7 °F 30.9 °F 62% 29.97 in 10.0 mi NE 9.2 mph - N/A   Overcast
7:53 PM 42.1 °F 37.1 °F 30.9 °F 65% 29.99 in 10.0 mi NE 8.1 mph - N/A   Overcast
8:53 PM 42.1 °F 38.4 °F 32.0 °F 67% 29.99 in 10.0 mi NNE 5.8 mph - N/A   Overcast
9:53 PM 42.1 °F 38.4 °F 30.9 °F 65% 30.00 in 10.0 mi ENE 5.8 mph - N/A   Overcast
10:15 PM 42.8 °F 38.0 °F 28.4 °F 57% 29.98 in 10.0 mi NE 8.1 mph - N/A   Overcast
10:53 PM 41.0 °F 36.4 °F 30.0 °F 65% 29.99 in 10.0 mi NE 6.9 mph - N/A   Overcast
11:53 PM 42.1 °F 39.2 °F 30.0 °F 62% 30.00 in 10.0 mi NE 4.6 mph - N/A   Overcast